Location: Astronomical Observatory "G. J. Rheticus" in Feltre (Italy)
(46.0730°N, 11.9276°E)
Time: 00:23:01
(UTC+02:00)

ISS - Visible Passes

Search period start: 17 October 2019 00:00
Search period end: 27 October 2019 00:00
Orbit: 411 x 421 km, 51.6° (Epoch: 16 October)

Date Brightness Start Highest point End Pass type
(mag) Time Alt. Az. Time Alt. Az. Time Alt. Az.
24 Oct -1.3 06:48:54 10° SSW 06:51:37 23° SE 06:54:21 10° E visible
25 Oct -0.8 06:01:20 10° SSE 06:03:14 14° SE 06:05:09 10° E visible
26 Oct -3.1 06:47:42 10° SW 06:50:59 54° SSE 06:54:17 10° ENE visible
